Starlink 1912

operational
NORAD ID: 47178 Int'l Des: 2020-088 Owner: SPXS Country: US Constellation: starlink
LEOCIRCULARSTARLINK_TYPE

About Starlink 1912

Description loading...

Live Position

Loading 3D Globe...

Upcoming Passes

Altitude History

Altitude vs Time

uPlot chart will show altitude changes over time

Two-Line Element Set

1 47178U 20088BJ 25304.83943505 .00000255 00000-0 36009-4 0 9990
2 47178 53.0518 160.0483 0001386 84.9064 275.2083 15.06402811272413
Epoch: Oct 31, 2025 • Age: 7 hours

Current Status

Altitude 549.5 km
Velocity 7.59 km/s
Sub-Earth Point 37.20°N, 142.93°W
Launch Date Nov 25, 2020
Age 4.9 years
Type internet

Technical Details

Classification Payload
Mass 260.00 kg
Dry Mass 248.00 kg
Total Mass 260.00 kg
Length 0.20 m
Diameter 2.80 m
Span 9.00 m
Shape Box + pan
Manufacturer SPXS
Bus Type Starlink
Phase Status In Orbit
Owner/State SPXS/US

Large Constellations

Loading constellations...